DECAYED

STARLINK-1082, 44938 (Decayed)

Orbit data source: Space-Track

STARLINK-1082, 44938 was a payload satellite owned by SpaceX/Seattle (US) in LEO that was launched on Tue, 07 Jan 2020 UTC via an FALCON 9 launch vehicle from the Air Force Eastern Test Range (AFETR). Payloads include a variety of satellites, spacecraft, and rockets equipped with specific instruments for various scientific and technological missions. These include communications satellites like Starlink; space stations such as the ISS; scientific satellites like the Hubble; Earth observation satellites from companies like Planet Labs, Umbra, and HawkEye 360; GPS; miniature CubeSats for education and research; and military/defense satellites.

Not visible in the next 10 days
STARLINK-1082 details
Identifier
44938, 2020-001AA
Orbit
Decayed
Last TLE update4 months ago
Origin
Flag of USSpaceX/Seattle (US)
ManufacturerSpaceX/Seattle
MissionDecayed Commercial Communications
Bus & MotorSTARLINK, Unknown motor
Mass260 kg wet, ~248 kg dry
Launch date (UTC)
2020-01-07 (5 years ago)
Launch vehicle
FALCON 9
Launch site
Air Force Eastern Test Range (AFETR)
Object type
Payload
Rocket body
Debris
Shape & HBRBox + 1 Pan, 8.86 m
Radar Cross Section13.562 m², Large (>1 m²)

Expand to show TLE details & history

TLE from 4 months ago
0 STARLINK-1082
1 44938U 20001AA  24234.10048814  .27086174  12311-4  34264-2 0  9990
2 44938  53.0254 271.8482 0005729 328.3067 140.5337 16.35148036255904
Epoch: 2024-08-21T02:24Z
Definitive object data (Epoch: 2024-08-21T02:24:42.175Z)
Latitude49.25934°
Longitude25.4215°
Altitude187.236 km
Speed7.798 km/s
True Right ascension02h 06m 01s
True Declination49° 04' 28"
Sunlit
Object was in daylight at TLE epoch
Visualization observer readout
Observer readout values are unavailable because the object's trajectory could not be propagated. This is usually caused when the trajectory data is faulty or the object's orbit has decayed.
Visualization observer readout
Observer readout values are unavailable because the object's trajectory could not be propagated. This is usually caused when the trajectory data is faulty or the object's orbit has decayed.
Orbital elements
Apogee altitude182.788 km
Perigee altitude175.275 km
Semi-major axis6,557.169 km
Eccentricity0.0005729
Inclination53.0254°
RAAN271.8482°
Arg. of periapsis328.3067°
True anomaly140.57541°
Mean anomaly140.5337°
Eccentric anomaly140.55455°
Mean motion4.0876 °/min
BSTAR0.0034264
Orbital period88.07 mins
Loading maneuver chart data...

STARLINK-1082 Visibility forecast

Observer location: undefined°, undefined

This satellite is decayed
Span
Click to sort rows by Start time (UTC) header in descending order
Start Az.
Max El. time (UTC)
Max El. Az.
Max El.
End time (UTC)
End Az.
|